Tracking 20093 objects as of 15-Dec-2019
HD Live streaming from Space Station
objects crossing your sky now

COSMOS 2251 DEB

Track COSMOS 2251 DEB now!
10-day predictions


NORAD ID: 40799
Int'l Code: 1993-036BWC
Perigee: 528.3 km
Apogee: 748.4 km
Inclination: 73.9 °
Period: 97.3 minutes
Semi major axis: 7009 km
RCS: Unknown
Launch date: June 16, 1993
Source: Commonwealth of Independent States (former USSR) (CIS)
Launch site: PLESETSK MISSILE AND SPACE COMPLEX (PKMTR)

Note: This is SATELLITE DEBRIS
aabbcc
Your satellite tracking list
Your tracking list is empty




NASA's NSSDC Master Catalog

Two Line Element Set (TLE):
1 40799U 93036BWC 19348.79084727 +.00000217 +00000-0 +28479-4 0  9993
2 40799 073.9312 150.7394 0156997 184.6578 175.3149 14.79403040174869
Source of the keplerian elements: AFSPC